User: anonymous   Login
Location: Unspecified
(0.0000°N, 0.0000°E)
Time: 14:49:33
(UTC+00:00)
Language:

BIROS - Orbit

View from above orbital plane
View from above orbital plane
View from above satellite
View from above satellite

Ground track
Ground track

The orbit data is extracted from the following two-line orbital elements,

1 41604U 16040F   21267.69636712  .00001320  00000-0  59329-4 0  9992
2 41604  97.2524 316.7892 0011909 359.6336   0.4890 15.22776770292005
Epoch (UTC): 24 September 2021 16:42:46
Eccentricity: 0.0011909
inclination: 97.2524°
perigee height: 489 km
apogee height: 505 km
right ascension of ascending node: 316.7892°
argument of perigee: 359.6336°
revolutions per day: 15.22776770
mean anomaly at epoch: 0.4890°
orbit number at epoch: 29200

The dashed part of the orbit path shows where the satellite is in the earth's shadow,  

DLR